When you browse on this site, cookies collect data to enhance your experience and personalize the content and advertising you see.
Visit our Privacy Policy to learn more. By continuing to use the site, you agree to this use of cookies and data.
  • en France
  • Liste des pays
  • À 7 jours
  • Température de l'eau
  • Carte météo
  • Widgets météo
  • user-avatar
    Se connecter

    Météo par heure à Bridgetown

    Ce jour, 23 Août, Vendredi

    Heure Température Précipitation Vent Pression Humidité
    00:00 +29°C° 0.1 mm 6 m/s 761 mmHg 81%
    01:00 +29°C° 0.1 mm 5 m/s 761 mmHg 81%
    02:00 +29°C° 0.1 mm 5 m/s 760 mmHg 81%
    03:00 +29°C° 0 mm 5 m/s 760 mmHg 82%
    04:00 +29°C° 0 mm 5 m/s 760 mmHg 82%
    05:00 +28°C° 0 mm 4 m/s 760 mmHg 82%
    06:00 +29°C° 0 mm 4 m/s 761 mmHg 80%
    07:00 +29°C° 0 mm 4 m/s 761 mmHg 78%
    08:00 +30°C° 0 mm 4 m/s 762 mmHg 76%
    09:00 +30°C° 0.1 mm 5 m/s 762 mmHg 75%
    10:00 +32°C° 0.1 mm 5 m/s 762 mmHg 74%
    11:00 +32°C° 0.1 mm 5 m/s 762 mmHg 73%
    12:00 +32°C° 0 mm 5 m/s 761 mmHg 71%
    13:00 +32°C° 0 mm 4 m/s 761 mmHg 69%
    14:00 +32°C° 0 mm 4 m/s 761 mmHg 67%
    15:00 +32°C° 0 mm 4 m/s 760 mmHg 67%
    16:00 +32°C° 0 mm 4 m/s 760 mmHg 68%
    17:00 +30°C° 0 mm 4 m/s 759 mmHg 68%
    18:00 +30°C° 0 mm 4 m/s 760 mmHg 71%
    19:00 +30°C° 0 mm 5 m/s 760 mmHg 73%
    20:00 +29°C° 0 mm 5 m/s 761 mmHg 76%
    21:00 +29°C° 0 mm 5 m/s 761 mmHg 76%
    22:00 +29°C° 0 mm 5 m/s 761 mmHg 77%
    23:00 +29°C° 0 mm 5 m/s 761 mmHg 78%

    Demain, 24 Août, Samedi

    Heure Température Précipitation Vent Pression Humidité
    00:00 +29°C° 0 mm 5 m/s 761 mmHg 78%
    01:00 +29°C° 0 mm 5 m/s 760 mmHg 79%
    02:00 +29°C° 0 mm 5 m/s 760 mmHg 80%
    03:00 +28°C° 0 mm 5 m/s 760 mmHg 80%
    04:00 +28°C° 0 mm 5 m/s 760 mmHg 80%
    05:00 +28°C° 0 mm 5 m/s 760 mmHg 80%
    06:00 +29°C° 0 mm 5 m/s 761 mmHg 79%
    07:00 +29°C° 0 mm 5 m/s 761 mmHg 79%
    08:00 +30°C° 0 mm 5 m/s 761 mmHg 78%
    09:00 +30°C° 0 mm 6 m/s 762 mmHg 76%
    10:00 +32°C° 0 mm 6 m/s 762 mmHg 75%
    11:00 +32°C° 0 mm 6 m/s 762 mmHg 73%
    12:00 +32°C° 0 mm 6 m/s 761 mmHg 73%
    13:00 +32°C° 0 mm 6 m/s 761 mmHg 72%
    14:00 +32°C° 0 mm 6 m/s 760 mmHg 72%
    15:00 +32°C° 0.1 mm 6 m/s 760 mmHg 73%
    16:00 +32°C° 0.1 mm 6 m/s 760 mmHg 75%
    17:00 +30°C° 0.1 mm 6 m/s 759 mmHg 76%
    18:00 +30°C° 0.4 mm 6 m/s 760 mmHg 78%
    19:00 +30°C° 0.4 mm 6 m/s 760 mmHg 80%
    20:00 +30°C° 0.4 mm 7 m/s 761 mmHg 83%
    21:00 +29°C° 0.1 mm 7 m/s 761 mmHg 82%
    22:00 +29°C° 0.1 mm 7 m/s 761 mmHg 81%
    23:00 +29°C° 0.1 mm 8 m/s 761 mmHg 80%

    Après-demain, 25 Août, Dimanche

    Heure Température Précipitation Vent Pression Humidité
    00:00 +29°C° 0 mm 8 m/s 761 mmHg 80%
    01:00 +29°C° 0 mm 8 m/s 760 mmHg 80%
    02:00 +29°C° 0 mm 7 m/s 760 mmHg 79%
    03:00 +29°C° 0 mm 7 m/s 760 mmHg 80%
    04:00 +29°C° 0 mm 7 m/s 760 mmHg 80%
    05:00 +29°C° 0 mm 7 m/s 760 mmHg 80%
    06:00 +29°C° 0 mm 7 m/s 760 mmHg 78%
    07:00 +30°C° 0 mm 7 m/s 761 mmHg 76%
    08:00 +30°C° 0 mm 7 m/s 761 mmHg 74%
    09:00 +30°C° 0 mm 7 m/s 761 mmHg 74%
    10:00 +32°C° 0 mm 7 m/s 761 mmHg 73%
    11:00 +32°C° 0 mm 7 m/s 761 mmHg 72%
    12:00 +32°C° 0 mm 7 m/s 761 mmHg 71%
    13:00 +32°C° 0 mm 7 m/s 760 mmHg 70%
    14:00 +32°C° 0 mm 7 m/s 760 mmHg 70%
    15:00 +32°C° 0 mm 7 m/s 760 mmHg 72%
    16:00 +32°C° 0 mm 7 m/s 759 mmHg 74%
    17:00 +30°C° 0 mm 7 m/s 759 mmHg 77%
    18:00 +30°C° 0 mm 7 m/s 759 mmHg 78%
    19:00 +30°C° 0 mm 7 m/s 760 mmHg 80%
    20:00 +30°C° 0 mm 6 m/s 760 mmHg 82%
    21:00 +30°C° 0.2 mm 7 m/s 760 mmHg 82%
    22:00 +30°C° 0.2 mm 7 m/s 760 mmHg 82%
    23:00 +29°C° 0.2 mm 8 m/s 761 mmHg 82%

    26 Août, Lundi

    Heure Température Précipitation Vent Pression Humidité
    00:00 +29°C° 0.1 mm 7 m/s 760 mmHg 82%
    01:00 +29°C° 0.1 mm 7 m/s 760 mmHg 82%
    02:00 +29°C° 0.1 mm 7 m/s 759 mmHg 82%
    03:00 +29°C° 0.2 mm 7 m/s 759 mmHg 81%
    04:00 +29°C° 0.2 mm 7 m/s 759 mmHg 80%
    05:00 +29°C° 0.2 mm 7 m/s 759 mmHg 79%
    06:00 +29°C° 0 mm 7 m/s 760 mmHg 77%
    07:00 +30°C° 0 mm 7 m/s 760 mmHg 76%
    08:00 +30°C° 0 mm 7 m/s 761 mmHg 74%
    09:00 +32°C° 0 mm 7 m/s 761 mmHg 72%
    10:00 +32°C° 0 mm 7 m/s 761 mmHg 71%
    11:00 +32°C° 0 mm 7 m/s 761 mmHg 69%
    12:00 +32°C° 0 mm 6 m/s 760 mmHg 69%
    13:00 +32°C° 0 mm 6 m/s 760 mmHg 69%
    14:00 +33°C° 0 mm 6 m/s 759 mmHg 69%
    15:00 +32°C° 0 mm 6 m/s 759 mmHg 71%
    16:00 +32°C° 0 mm 6 m/s 759 mmHg 73%
    17:00 +30°C° 0 mm 6 m/s 759 mmHg 75%
    18:00 +30°C° 0.1 mm 6 m/s 759 mmHg 76%
    19:00 +30°C° 0.1 mm 6 m/s 759 mmHg 78%
    20:00 +29°C° 0.1 mm 6 m/s 759 mmHg 79%
    21:00 +29°C° 0 mm 6 m/s 760 mmHg 79%
    22:00 +29°C° 0 mm 6 m/s 760 mmHg 79%
    23:00 +29°C° 0 mm 5 m/s 760 mmHg 79%

    27 Août, Mardi

    Heure Température Précipitation Vent Pression Humidité
    00:00 +29°C° 0 mm 5 m/s 760 mmHg 79%
    01:00 +29°C° 0 mm 5 m/s 759 mmHg 79%
    02:00 +28°C° 0 mm 5 m/s 759 mmHg 79%
    03:00 +28°C° 0 mm 5 m/s 759 mmHg 80%
    04:00 +28°C° 0 mm 5 m/s 759 mmHg 81%
    05:00 +28°C° 0 mm 5 m/s 759 mmHg 82%
    06:00 +29°C° 0 mm 5 m/s 759 mmHg 80%
    07:00 +29°C° 0 mm 5 m/s 760 mmHg 78%
    08:00 +29°C° 0 mm 5 m/s 760 mmHg 77%
    09:00 +30°C° 0 mm 5 m/s 760 mmHg 75%
    10:00 +30°C° 0 mm 5 m/s 760 mmHg 73%
    11:00 +32°C° 0 mm 5 m/s 760 mmHg 71%
    12:00 +32°C° 0 mm 5 m/s 760 mmHg 70%
    13:00 +32°C° 0 mm 5 m/s 759 mmHg 70%
    14:00 +32°C° 0 mm 5 m/s 759 mmHg 69%
    15:00 +32°C° 0.4 mm 5 m/s 759 mmHg 71%
    16:00 +30°C° 0.4 mm 5 m/s 758 mmHg 72%
    17:00 +30°C° 0.4 mm 5 m/s 758 mmHg 74%
    18:00 +30°C° 0.4 mm 5 m/s 759 mmHg 75%
    19:00 +30°C° 0.4 mm 5 m/s 759 mmHg 75%
    20:00 +29°C° 0.4 mm 5 m/s 759 mmHg 76%
    21:00 +29°C° 0.2 mm 4 m/s 759 mmHg 76%
    22:00 +29°C° 0.2 mm 4 m/s 760 mmHg 77%
    23:00 +29°C° 0.2 mm 4 m/s 760 mmHg 77%

    28 Août, Mercredi

    Heure Température Précipitation Vent Pression Humidité
    00:00 +29°C° 0 mm 4 m/s 759 mmHg 77%
    01:00 +29°C° 0 mm 4 m/s 759 mmHg 77%
    02:00 +29°C° 0 mm 4 m/s 758 mmHg 77%
    03:00 +29°C° 0 mm 4 m/s 759 mmHg 76%
    04:00 +29°C° 0 mm 3 m/s 759 mmHg 76%
    05:00 +28°C° 0 mm 3 m/s 759 mmHg 75%
    06:00 +29°C° 0 mm 3 m/s 759 mmHg 75%
    07:00 +29°C° 0 mm 3 m/s 759 mmHg 74%
    08:00 +30°C° 0 mm 3 m/s 760 mmHg 73%
    09:00 +30°C° 0.1 mm 3 m/s 760 mmHg 73%
    10:00 +31°C° 0.1 mm 3 m/s 760 mmHg 72%
    11:00 +31°C° 0.1 mm 3 m/s 760 mmHg 71%
    12:00 +31°C° 0.9 mm 3 m/s 760 mmHg 71%
    13:00 +31°C° 0.9 mm 3 m/s 759 mmHg 72%
    14:00 +30°C° 0.9 mm 3 m/s 759 mmHg 72%
    15:00 +30°C° 0.4 mm 3 m/s 759 mmHg 73%
    16:00 +30°C° 0.4 mm 3 m/s 758 mmHg 73%
    17:00 +30°C° 0.4 mm 3 m/s 758 mmHg 73%
    18:00 +30°C° 0.1 mm 3 m/s 758 mmHg 73%
    19:00 +30°C° 0.1 mm 4 m/s 759 mmHg 72%
    20:00 +29°C° 0.1 mm 4 m/s 759 mmHg 72%
    21:00 +29°C° 0 mm 4 m/s 759 mmHg 72%
    22:00 +29°C° 0 mm 3 m/s 760 mmHg 72%
    23:00 +29°C° 0 mm 3 m/s 760 mmHg 72%
    Voir plus